| time (UTC) | temp F | wind direction | speed knots | gust knots | rain 1hr in | rain 24hr in | rain mn in | humidity % | barometer mb |
| 20260510180305 | 81 | 228 | 1.7 | 2.6 | 0.00 | 0.00 | 0.00 | 82 | 1017.8 |
| 20260510175802 | 81 | 19 | 3.5 | 4.3 | 0.00 | 0.00 | 0.00 | 81 | 1017.6 |
| 20260510175257 | 80 | 325 | 1.7 | 1.7 | 0.00 | 0.00 | 0.00 | 82 | 1017.9 |
| 20260510174754 | 80 | 349 | 3.5 | 4.3 | 0.00 | 0.00 | 0.00 | 81 | 1017.7 |
| 20260510174252 | 81 | 47 | 1.7 | 1.7 | 0.00 | 0.00 | 0.00 | 81 | 1017.7 |
| 20260510173748 | 80 | 342 | 0.0 | 0.9 | 0.00 | 0.00 | 0.00 | 83 | 1017.7 |
| 20260510173244 | 80 | 350 | 0.0 | 0.9 | 0.00 | 0.00 | 0.00 | 83 | 1017.8 |
| 20260510172739 | 79 | 314 | 1.7 | 1.7 | 0.00 | 0.00 | 0.00 | 82 | 1017.9 |
| 20260510172235 | 79 | 32 | 1.7 | 2.6 | 0.00 | 0.00 | 0.00 | 85 | 1018.0 |
| 20260510171733 | 78 | 318 | 0.9 | 1.7 | 0.00 | 0.00 | 0.00 | 86 | 1018.2 |
| 20260510171230 | 80 | 347 | 0.0 | 0.9 | 0.00 | 0.00 | 0.00 | 85 | 1018.0 |
| 20260510170727 | 79 | 332 | 0.9 | 1.7 | 0.00 | 0.00 | 0.00 | 85 | 1018.1 |
| 20260510170223 | 78 | 340 | 0.9 | 0.9 | 0.00 | 0.00 | 0.00 | 87 | 1018.3 |
| 20260510165719 | 78 | 356 | 2.6 | 4.3 | 0.00 | 0.00 | 0.00 | 88 | 1018.3 |
| 20260510165215 | 78 | 4 | 0.9 | 0.9 | 0.00 | 0.00 | 0.00 | 86 | 1018.3 |
| 20260510164712 | 77 | 0 | 1.7 | 1.7 | 0.00 | 0.00 | 0.00 | 87 | 1018.5 |
| 20260510164210 | 78 | 238 | 1.7 | 2.6 | 0.00 | 0.00 | 0.00 | 88 | 1018.2 |
| 20260510163705 | 77 | 357 | 1.7 | 1.7 | 0.00 | 0.00 | 0.00 | 90 | 1018.6 |
| 20260510163201 | 76 | 1 | 2.6 | 2.6 | 0.00 | 0.00 | 0.00 | 88 | 1018.6 |
| 20260510162700 | 76 | 309 | 2.6 | 2.6 | 0.00 | 0.00 | 0.00 | 89 | 1018.6 |
| 20260510162158 | 74 | 351 | 1.7 | 2.6 | 0.00 | 0.00 | 0.00 | 95 | 1018.5 |
| 20260510161653 | 73 | 308 | 1.7 | 2.6 | 0.00 | 0.00 | 0.00 | 98 | 1018.5 |
| 20260510161150 | 72 | 347 | 1.7 | 1.7 | 0.00 | 0.00 | 0.00 | 99 | 1018.7 |
| 20260510160647 | 71 | 330 | 0.9 | 0.9 | 0.00 | 0.00 | 0.00 | 99 | 1018.8 |
| 20260510160142 | 71 | 29 | 2.6 | 2.6 | 0.00 | 0.00 | 0.00 | 99 | 1018.8 |
| 20260510155638 | 72 | 269 | 0.0 | 0.0 | 0.00 | 0.00 | 0.00 | 99 | 1018.7 |
| 20260510155134 | 70 | 330 | 0.0 | 0.0 | 0.00 | 0.00 | 0.00 | 99 | 1018.6 |
| 20260510154630 | 70 | 5 | 0.9 | 1.7 | 0.00 | 0.00 | 0.00 | 99 | 1018.7 |
| 20260510154126 | 70 | 314 | 0.9 | 0.9 | 0.00 | 0.00 | 0.00 | 99 | 1018.6 |
| 20260510153621 | 69 | 268 | 1.7 | 1.7 | 0.00 | 0.00 | 0.00 | 99 | 1018.5 |
| 20260510153118 | 69 | 335 | 0.9 | 0.9 | 0.00 | 0.00 | 0.00 | 99 | 1018.6 |
| 20260510152615 | 69 | 326 | 1.7 | 1.7 | 0.00 | 0.00 | 0.00 | 99 | 1018.6 |
| 20260510152111 | 68 | 339 | 2.6 | 2.6 | 0.00 | 0.00 | 0.00 | 99 | 1018.5 |
| 20260510151607 | 69 | 334 | 0.9 | 0.9 | 0.00 | 0.00 | 0.00 | 99 | 1018.6 |
| 20260510151105 | 69 | 340 | 0.9 | 1.7 | 0.00 | 0.00 | 0.00 | 99 | 1018.6 |
| 20260510150600 | 69 | 343 | 1.7 | 2.6 | 0.00 | 0.00 | 0.00 | 99 | 1018.9 |
| 20260510150056 | 69 | 4 | 0.0 | 0.9 | 0.00 | 0.00 | 0.00 | 99 | 1018.6 |
| 20260510145553 | 68 | 253 | 0.9 | 1.7 | 0.00 | 0.00 | 0.00 | 99 | 1018.7 |
| 20260510145050 | 68 | 334 | 1.7 | 2.6 | 0.00 | 0.00 | 0.00 | 99 | 1018.8 |
| 20260510144546 | 69 | 319 | 0.0 | 0.9 | 0.00 | 0.00 | 0.00 | 99 | 1018.9 |
| 20260510144042 | 68 | 2 | 0.9 | 0.9 | 0.00 | 0.00 | 0.00 | 99 | 1018.8 |
| 20260510143537 | 69 | 331 | 0.9 | 0.9 | 0.00 | 0.00 | 0.00 | 99 | 1018.7 |
| 20260510143034 | 68 | 251 | 0.9 | 0.9 | 0.00 | 0.00 | 0.00 | 99 | 1019.0 |
| 20260510142531 | 67 | 351 | 0.9 | 0.9 | 0.00 | 0.00 | 0.00 | 99 | 1019.2 |
| 20260510142028 | 68 | 351 | 0.9 | 0.9 | 0.00 | 0.00 | 0.00 | 99 | 1019.0 |
| 20260510141524 | 68 | 270 | 0.0 | 0.9 | 0.00 | 0.00 | 0.00 | 99 | 1019.0 |
| 20260510141022 | 68 | 334 | 1.7 | 1.7 | 0.00 | 0.00 | 0.00 | 99 | 1019.0 |
| 20260510140518 | 67 | 353 | 0.9 | 0.9 | 0.00 | 0.00 | 0.00 | 99 | 1019.0 |
| 20260510140018 | 67 | 347 | 0.0 | 0.0 | 0.00 | 0.00 | 0.00 | 99 | 1018.7 |
| 20260510135513 | 67 | 339 | 0.0 | 0.0 | 0.00 | 0.00 | 0.00 | 99 | 1018.9 |
| 20260510135010 | 67 | 340 | 0.9 | 0.9 | 0.00 | 0.00 | 0.00 | 99 | 1018.8 |
| 20260510134507 | 67 | 0 | 1.7 | 1.7 | 0.00 | 0.00 | 0.00 | 99 | 1018.7 |
| 20260510134004 | 67 | 322 | 2.6 | 2.6 | 0.00 | 0.00 | 0.00 | 99 | 1018.7 |
| 20260510133500 | 67 | 269 | 0.0 | 0.0 | 0.00 | 0.00 | 0.00 | 99 | 1018.6 |
| 20260510132955 | 67 | 269 | 0.0 | 0.0 | 0.00 | 0.00 | 0.00 | 99 | 1018.5 |
| 20260510132453 | 67 | 268 | 0.0 | 0.0 | 0.00 | 0.00 | 0.00 | 99 | 1018.5 |
| 20260510131950 | 67 | 323 | 1.7 | 1.7 | 0.00 | 0.00 | 0.00 | 99 | 1018.5 |
| 20260510131448 | 66 | 316 | 0.9 | 1.7 | 0.00 | 0.00 | 0.00 | 99 | 1018.3 |
| 20260510130944 | 67 | 335 | 1.7 | 2.6 | 0.00 | 0.00 | 0.00 | 99 | 1018.1 |
| 20260510130441 | 66 | 336 | 0.0 | 0.0 | 0.00 | 0.00 | 0.00 | 99 | 1018.1 |
| 20260510125938 | 66 | 336 | 0.0 | 0.9 | 0.00 | 0.00 | 0.00 | 99 | 1018.2 |
| 20260510125434 | 66 | 338 | 0.9 | 0.9 | 0.00 | 0.00 | 0.00 | 99 | 1018.2 |
| 20260510124930 | 66 | 329 | 0.0 | 0.0 | 0.00 | 0.00 | 0.00 | 99 | 1018.3 |
| 20260510124427 | 65 | 331 | 1.7 | 1.7 | 0.00 | 0.00 | 0.00 | 99 | 1018.1 |
| 20260510123924 | 65 | 308 | 0.0 | 0.0 | 0.00 | 0.00 | 0.00 | 99 | 1017.9 |
| 20260510123414 | 65 | 322 | 0.0 | 0.0 | 0.00 | 0.00 | 0.00 | 99 | 1017.7 |
| 20260510122911 | 65 | 319 | 0.0 | 0.0 | 0.00 | 0.00 | 0.00 | 99 | 1017.9 |
| 20260510122411 | 65 | 298 | 0.0 | 0.0 | 0.00 | 0.00 | 0.00 | 99 | 1017.8 |
| 20260510121907 | 65 | 290 | 0.0 | 0.0 | 0.00 | 0.00 | 0.00 | 99 | 1017.6 |
| 20260510121405 | 65 | 307 | 0.0 | 0.0 | 0.00 | 0.00 | 0.00 | 99 | 1017.6 |
| 20260510120902 | 65 | 306 | 0.0 | 0.0 | 0.00 | 0.00 | 0.00 | 99 | 1017.7 |
| 20260510120359 | 65 | 289 | 0.0 | 0.0 | 0.00 | 0.00 | 0.00 | 99 | 1017.4 |
| 20260510115855 | 64 | 289 | 0.0 | 0.0 | 0.00 | 0.00 | 0.00 | 99 | 1017.3 |
| 20260510115352 | 64 | 289 | 0.9 | 0.9 | 0.00 | 0.00 | 0.00 | 99 | 1017.4 |
| 20260510114848 | 64 | 292 | 0.0 | 0.0 | 0.00 | 0.00 | 0.00 | 99 | 1017.2 |
| 20260510114346 | 64 | 292 | 0.0 | 0.0 | 0.00 | 0.00 | 0.00 | 99 | 1017.0 |
| 20260510113845 | 64 | 292 | 0.0 | 0.0 | 0.00 | 0.00 | 0.00 | 99 | 1016.8 |
| 20260510113342 | 64 | 292 | 0.0 | 0.0 | 0.00 | 0.00 | 0.00 | 99 | 1016.5 |
| 20260510112839 | 64 | 292 | 0.9 | 0.9 | 0.00 | 0.00 | 0.00 | 99 | 1016.7 |
| 20260510112336 | 64 | 309 | 0.0 | 0.0 | 0.00 | 0.00 | 0.00 | 99 | 1016.6 |
| 20260510111832 | 64 | 309 | 0.0 | 0.0 | 0.00 | 0.00 | 0.00 | 99 | 1016.4 |
| 20260510111329 | 63 | 317 | 0.0 | 0.0 | 0.00 | 0.00 | 0.00 | 99 | 1016.2 |
| 20260510110828 | 63 | 317 | 0.0 | 0.0 | 0.00 | 0.00 | 0.00 | 99 | 1016.0 |
| 20260510110326 | 63 | 317 | 0.0 | 0.0 | 0.00 | 0.00 | 0.00 | 99 | 1016.0 |
| 20260510105822 | 63 | 317 | 0.0 | 0.0 | 0.00 | 0.00 | 0.00 | 99 | 1015.8 |
| 20260510105321 | 63 | 317 | 0.0 | 0.0 | 0.00 | 0.00 | 0.00 | 99 | 1015.8 |
| 20260510104818 | 63 | 317 | 0.0 | 0.0 | 0.00 | 0.00 | 0.00 | 99 | 1015.9 |
| 20260510104315 | 63 | 317 | 0.0 | 0.0 | 0.00 | 0.00 | 0.00 | 99 | 1015.8 |
| 20260510103812 | 63 | 317 | 0.0 | 0.0 | 0.00 | 0.00 | 0.00 | 99 | 1015.8 |
| 20260510103309 | 64 | 317 | 0.0 | 0.0 | 0.00 | 0.00 | 0.00 | 99 | 1015.7 |
| 20260510102804 | 64 | 317 | 0.0 | 0.0 | 0.00 | 0.00 | 0.00 | 99 | 1015.6 |
| 20260510102300 | 64 | 317 | 0.0 | 0.0 | 0.00 | 0.00 | 0.00 | 99 | 1015.6 |
| 20260510101757 | 64 | 317 | 0.0 | 0.0 | 0.00 | 0.00 | 0.00 | 99 | 1015.4 |
| 20260510101255 | 64 | 317 | 0.0 | 0.0 | 0.00 | 0.00 | 0.00 | 99 | 1015.6 |
| 20260510100751 | 64 | 317 | 0.0 | 0.0 | 0.00 | 0.00 | 0.00 | 99 | 1015.6 |
| 20260510100249 | 64 | 317 | 0.0 | 0.0 | 0.00 | 0.00 | 0.00 | 99 | 1015.4 |
| 20260510095744 | 64 | 317 | 0.0 | 0.0 | 0.00 | 0.00 | 0.00 | 99 | 1015.2 |
| 20260510095240 | 64 | 317 | 0.0 | 0.0 | 0.00 | 0.00 | 0.00 | 99 | 1015.3 |
| 20260510094738 | 64 | 317 | 0.0 | 0.0 | 0.00 | 0.00 | 0.00 | 99 | 1015.2 |
| 20260510094234 | 64 | 317 | 0.0 | 0.0 | 0.00 | 0.00 | 0.00 | 99 | 1015.5 |
| 20260510093730 | 64 | 317 | 0.0 | 0.0 | 0.00 | 0.00 | 0.00 | 99 | 1015.4 |
| 20260510093228 | 64 | 317 | 0.0 | 0.0 | 0.00 | 0.00 | 0.00 | 99 | 1015.5 |
| 20260510092724 | 65 | 317 | 0.0 | 0.0 | 0.00 | 0.00 | 0.00 | 99 | 1015.2 |
| 20260510092220 | 65 | 317 | 0.0 | 0.0 | 0.00 | 0.00 | 0.00 | 99 | 1015.3 |
| 20260510091716 | 65 | 317 | 0.0 | 0.0 | 0.00 | 0.00 | 0.00 | 99 | 1015.3 |
| 20260510091212 | 65 | 317 | 0.0 | 0.0 | 0.00 | 0.00 | 0.00 | 99 | 1015.5 |
| 20260510090709 | 65 | 317 | 0.0 | 0.0 | 0.00 | 0.00 | 0.00 | 99 | 1015.4 |
| 20260510090206 | 65 | 320 | 0.9 | 0.9 | 0.00 | 0.00 | 0.00 | 99 | 1015.4 |
| 20260510085701 | 65 | 318 | 0.9 | 0.9 | 0.00 | 0.00 | 0.00 | 99 | 1015.3 |
| 20260510085156 | 65 | 318 | 0.0 | 0.0 | 0.00 | 0.00 | 0.00 | 99 | 1015.0 |
| 20260510084653 | 65 | 318 | 0.0 | 0.0 | 0.00 | 0.00 | 0.00 | 99 | 1015.0 |
| 20260510084149 | 65 | 319 | 0.9 | 0.9 | 0.00 | 0.00 | 0.00 | 99 | 1015.0 |
| 20260510083646 | 65 | 318 | 0.0 | 0.9 | 0.00 | 0.00 | 0.00 | 99 | 1015.1 |
| 20260510083143 | 65 | 317 | 0.0 | 0.9 | 0.00 | 0.00 | 0.00 | 99 | 1014.9 |
| 20260510082639 | 65 | 317 | 0.9 | 0.9 | 0.00 | 0.00 | 0.00 | 99 | 1015.1 |
| 20260510082135 | 65 | 317 | 0.9 | 0.9 | 0.00 | 0.00 | 0.00 | 99 | 1014.9 |
| 20260510081629 | 65 | 317 | 0.0 | 0.9 | 0.00 | 0.00 | 0.00 | 99 | 1015.1 |
| 20260510081126 | 65 | 317 | 0.9 | 0.9 | 0.00 | 0.00 | 0.00 | 99 | 1015.1 |
| 20260510080625 | 65 | 316 | 0.0 | 0.0 | 0.00 | 0.00 | 0.00 | 99 | 1014.8 |
| 20260510080122 | 65 | 316 | 0.0 | 0.0 | 0.00 | 0.00 | 0.00 | 99 | 1014.6 |
| 20260510075619 | 65 | 316 | 0.9 | 0.9 | 0.00 | 0.00 | 0.00 | 99 | 1014.8 |
| 20260510075117 | 65 | 311 | 0.0 | 0.0 | 0.00 | 0.00 | 0.00 | 99 | 1014.8 |
| 20260510074614 | 65 | 310 | 0.0 | 0.9 | 0.00 | 0.00 | 0.00 | 99 | 1014.8 |
| 20260510074109 | 65 | 307 | 0.0 | 0.0 | 0.00 | 0.00 | 0.00 | 99 | 1014.7 |
| 20260510073605 | 65 | 297 | 0.9 | 0.9 | 0.00 | 0.00 | 0.00 | 99 | 1014.7 |
| 20260510073103 | 66 | 297 | 0.0 | 0.0 | 0.00 | 0.00 | 0.00 | 99 | 1014.5 |
| 20260510072559 | 66 | 296 | 0.0 | 0.0 | 0.00 | 0.00 | 0.00 | 99 | 1015.0 |
| 20260510072055 | 66 | 296 | 0.0 | 0.0 | 0.00 | 0.00 | 0.00 | 99 | 1014.7 |
| 20260510071551 | 66 | 289 | 0.0 | 0.0 | 0.00 | 0.00 | 0.00 | 99 | 1015.0 |
| 20260510071049 | 65 | 289 | 0.0 | 0.0 | 0.00 | 0.00 | 0.00 | 99 | 1015.1 |
| 20260510070546 | 65 | 289 | 0.0 | 0.0 | 0.00 | 0.00 | 0.00 | 99 | 1014.9 |
| 20260510070043 | 66 | 284 | 0.0 | 0.0 | 0.00 | 0.00 | 0.00 | 99 | 1014.9 |
| 20260510065539 | 66 | 280 | 0.0 | 0.0 | 0.00 | 0.00 | 0.00 | 99 | 1014.9 |
| 20260510065035 | 66 | 280 | 0.0 | 0.0 | 0.00 | 0.00 | 0.00 | 99 | 1014.8 |
| 20260510064532 | 66 | 255 | 0.0 | 0.0 | 0.00 | 0.00 | 0.00 | 99 | 1014.6 |
| 20260510064028 | 66 | 251 | 0.0 | 0.0 | 0.00 | 0.00 | 0.00 | 99 | 1014.7 |
| 20260510063525 | 66 | 258 | 1.7 | 1.7 | 0.00 | 0.00 | 0.00 | 99 | 1014.6 |
| 20260510063023 | 66 | 273 | 0.0 | 0.0 | 0.00 | 0.00 | 0.00 | 99 | 1014.7 |
| 20260510062518 | 66 | 273 | 0.0 | 0.0 | 0.00 | 0.00 | 0.00 | 99 | 1014.9 |
| 20260510062014 | 66 | 273 | 0.0 | 0.0 | 0.00 | 0.00 | 0.00 | 99 | 1015.1 |
| 20260510061511 | 66 | 273 | 0.0 | 0.0 | 0.00 | 0.00 | 0.00 | 99 | 1015.1 |
| 20260510061007 | 66 | 273 | 0.0 | 0.0 | 0.00 | 0.00 | 0.00 | 99 | 1014.9 |
| 20260510060504 | 66 | 273 | 0.0 | 0.0 | 0.00 | 0.00 | 0.00 | 99 | 1015.2 |
| 20260510060000 | 66 | 273 | 0.0 | 0.0 | 0.00 | 0.00 | 0.00 | 99 | 1014.8 |
| 20260510055456 | 66 | 273 | 0.0 | 0.0 | 0.00 | 0.00 | 0.00 | 99 | 1015.2 |
| 20260510054954 | 66 | 273 | 0.0 | 0.0 | 0.00 | 0.00 | 0.00 | 99 | 1015.1 |
| 20260510054449 | 66 | 273 | 0.0 | 0.0 | 0.00 | 0.00 | 0.00 | 99 | 1015.2 |
| 20260510053945 | 66 | 273 | 0.0 | 0.0 | 0.00 | 0.00 | 0.00 | 99 | 1015.1 |
| 20260510053440 | 66 | 273 | 0.0 | 0.0 | 0.00 | 0.00 | 0.00 | 99 | 1014.9 |
| 20260510052936 | 66 | 273 | 0.0 | 0.0 | 0.00 | 0.00 | 0.00 | 99 | 1015.0 |
| 20260510052432 | 66 | 273 | 0.0 | 0.0 | 0.00 | 0.00 | 0.00 | 99 | 1015.0 |
| 20260510051929 | 66 | 273 | 0.0 | 0.0 | 0.00 | 0.00 | 0.00 | 99 | 1014.9 |
| 20260510051425 | 66 | 273 | 0.0 | 0.9 | 0.00 | 0.00 | 0.00 | 99 | 1014.6 |
| 20260510050922 | 66 | 273 | 0.0 | 0.0 | 0.00 | 0.00 | 0.00 | 99 | 1014.8 |
| 20260510050418 | 66 | 273 | 0.0 | 0.0 | 0.00 | 0.00 | 0.00 | 99 | 1014.9 |
| 20260510045916 | 66 | 284 | 0.9 | 0.9 | 0.00 | 2.50 | 2.50 | 99 | 1014.4 |
| 20260510045413 | 66 | 295 | 0.0 | 0.0 | 0.00 | 2.50 | 2.50 | 99 | 1014.5 |
| 20260510044909 | 66 | 299 | 0.0 | 0.0 | 0.00 | 2.50 | 2.50 | 99 | 1014.5 |
| 20260510044407 | 66 | 329 | 0.0 | 0.0 | 0.00 | 2.50 | 2.50 | 99 | 1014.4 |
| 20260510043903 | 66 | 329 | 0.0 | 0.0 | 0.00 | 2.50 | 2.50 | 99 | 1014.8 |
| 20260510043359 | 66 | 329 | 0.0 | 0.0 | 0.00 | 2.50 | 2.50 | 99 | 1014.7 |
| 20260510042857 | 66 | 329 | 0.0 | 0.0 | 0.00 | 2.50 | 2.50 | 99 | 1014.7 |
| 20260510042353 | 66 | 329 | 0.0 | 0.0 | 0.00 | 2.50 | 2.50 | 99 | 1014.9 |
| 20260510041849 | 66 | 329 | 0.0 | 0.0 | 0.00 | 2.50 | 2.50 | 99 | 1015.1 |
| 20260510041346 | 66 | 329 | 0.0 | 0.0 | 0.00 | 2.50 | 2.50 | 99 | 1014.9 |
| 20260510040844 | 66 | 329 | 0.0 | 0.0 | 0.00 | 2.50 | 2.50 | 99 | 1015.1 |
| 20260510040340 | 66 | 329 | 0.0 | 0.0 | 0.00 | 2.50 | 2.50 | 99 | 1015.4 |
| 20260510035836 | 66 | 329 | 0.0 | 0.0 | 0.00 | 2.50 | 2.50 | 99 | 1015.6 |
| 20260510035332 | 66 | 329 | 0.0 | 0.0 | 0.00 | 2.50 | 2.50 | 99 | 1015.6 |
| 20260510034828 | 66 | 329 | 0.0 | 0.0 | 0.00 | 2.50 | 2.50 | 99 | 1015.7 |
| 20260510034326 | 66 | 329 | 0.0 | 0.0 | 0.00 | 2.50 | 2.50 | 99 | 1015.5 |
| 20260510033822 | 66 | 329 | 0.0 | 0.0 | 0.00 | 2.50 | 2.50 | 99 | 1015.5 |
| 20260510033319 | 66 | 329 | 0.0 | 0.0 | 0.00 | 2.50 | 2.50 | 99 | 1015.7 |
| 20260510032816 | 66 | 329 | 0.0 | 0.0 | 0.00 | 2.50 | 2.50 | 99 | 1015.5 |
| 20260510032312 | 66 | 329 | 0.0 | 0.0 | 0.00 | 2.50 | 2.50 | 99 | 1015.5 |
| 20260510031808 | 66 | 329 | 0.0 | 0.0 | 0.00 | 2.50 | 2.50 | 99 | 1015.2 |
| 20260510031303 | 66 | 329 | 0.0 | 0.0 | 0.00 | 2.50 | 2.50 | 99 | 1015.2 |
| 20260510030757 | 66 | 330 | 1.7 | 1.7 | 0.00 | 2.50 | 2.50 | 99 | 1015.3 |
| 20260510030254 | 66 | 330 | 0.0 | 0.0 | 0.00 | 2.50 | 2.50 | 99 | 1015.5 |
| 20260510025752 | 66 | 330 | 0.0 | 0.0 | 0.00 | 2.50 | 2.50 | 99 | 1015.2 |
| 20260510025249 | 66 | 330 | 0.0 | 0.0 | 0.00 | 2.50 | 2.50 | 99 | 1015.4 |
| 20260510024745 | 66 | 330 | 0.0 | 0.0 | 0.00 | 2.50 | 2.50 | 99 | 1015.7 |
| 20260510024242 | 66 | 317 | 0.0 | 0.0 | 0.05 | 2.50 | 2.50 | 99 | 1015.5 |
| 20260510023738 | 66 | 317 | 0.0 | 0.0 | 0.05 | 2.50 | 2.50 | 99 | 1015.9 |
| 20260510023230 | 66 | 324 | 0.0 | 0.0 | 0.00 | 2.49 | 2.49 | 99 | 1015.6 |
| 20260510022726 | 66 | 323 | 0.9 | 0.9 | 0.00 | 2.49 | 2.49 | 99 | 1015.2 |
| 20260510022225 | 66 | 342 | 1.7 | 1.7 | 0.00 | 2.49 | 2.49 | 99 | 1015.0 |
| 20260510021721 | 66 | 341 | 0.0 | 0.9 | 0.00 | 2.49 | 2.49 | 99 | 1015.5 |
| 20260510021219 | 66 | 325 | 0.0 | 0.9 | 0.00 | 2.49 | 2.49 | 99 | 1015.1 |
| 20260510020714 | 66 | 298 | 0.0 | 0.0 | 0.00 | 2.49 | 2.49 | 99 | 1014.7 |
| 20260510020209 | 66 | 298 | 0.0 | 0.9 | 0.00 | 2.49 | 2.49 | 99 | 1014.4 |
| 20260510015705 | 66 | 294 | 0.9 | 0.9 | 0.00 | 2.49 | 2.49 | 99 | 1015.0 |
| 20260510015201 | 66 | 287 | 0.0 | 0.9 | 0.00 | 2.49 | 2.49 | 99 | 1014.5 |
| 20260510014701 | 66 | 274 | 0.0 | 0.0 | 0.00 | 2.49 | 2.49 | 99 | 1014.2 |
| 20260510014159 | 66 | 204 | 0.0 | 0.0 | 0.00 | 2.49 | 2.49 | 99 | 1013.7 |
| 20260510013654 | 66 | 204 | 0.0 | 0.0 | 0.00 | 2.49 | 2.49 | 99 | 1013.9 |
| 20260510013150 | 66 | 204 | 0.0 | 0.0 | 0.00 | 2.49 | 2.49 | 99 | 1013.6 |
| 20260510012650 | 66 | 223 | 1.7 | 1.7 | 0.00 | 2.49 | 2.49 | 99 | 1014.0 |
| 20260510012146 | 66 | 269 | 0.0 | 0.0 | 0.00 | 2.49 | 2.49 | 99 | 1014.1 |
| 20260510011641 | 66 | 270 | 0.0 | 0.0 | 0.00 | 2.49 | 2.49 | 99 | 1014.0 |
| 20260510011137 | 66 | 270 | 0.0 | 0.0 | 0.00 | 2.49 | 2.49 | 99 | 1013.9 |
| 20260510010633 | 66 | 266 | 0.0 | 0.0 | 0.00 | 2.49 | 2.49 | 99 | 1014.2 |
| 20260510010130 | 66 | 247 | 0.0 | 0.0 | 0.00 | 2.49 | 2.49 | 99 | 1014.2 |
| 20260510005625 | 66 | 242 | 0.0 | 0.0 | 0.00 | 2.49 | 2.49 | 99 | 1014.1 |
| 20260510005123 | 66 | 242 | 0.0 | 0.0 | 0.07 | 2.49 | 2.49 | 99 | 1014.2 |
| 20260510004621 | 66 | 242 | 0.0 | 0.0 | 0.07 | 2.49 | 2.49 | 99 | 1014.1 |
| 20260510004119 | 66 | 242 | 0.0 | 0.0 | 0.00 | 2.48 | 2.48 | 99 | 1014.0 |
| 20260510003616 | 66 | 242 | 0.0 | 0.0 | 0.00 | 2.48 | 2.48 | 99 | 1014.4 |
| 20260510003112 | 66 | 242 | 0.0 | 0.0 | 0.00 | 2.48 | 2.48 | 99 | 1014.3 |
| 20260510002606 | 67 | 242 | 0.0 | 0.9 | 0.00 | 2.48 | 2.48 | 99 | 1014.5 |
| 20260510002103 | 67 | 240 | 0.0 | 0.0 | 0.00 | 2.48 | 2.48 | 99 | 1014.4 |
| 20260510001601 | 67 | 239 | 0.0 | 0.0 | 0.05 | 2.48 | 2.48 | 99 | 1014.2 |
| 20260510001100 | 67 | 278 | 0.0 | 0.0 | 0.05 | 2.48 | 2.48 | 99 | 1014.4 |
| 20260510000600 | 67 | 280 | 0.0 | 0.9 | 0.00 | 2.47 | 2.47 | 99 | 1014.2 |
| 20260510000056 | 67 | 257 | 0.9 | 0.9 | 0.07 | 2.47 | 2.47 | 99 | 1014.3 |
| 20260509235553 | 67 | 252 | 0.0 | 0.0 | 0.07 | 2.47 | 2.47 | 99 | 1013.8 |
| 20260509235050 | 67 | 283 | 0.9 | 0.9 | 0.05 | 2.46 | 2.46 | 99 | 1014.2 |
| 20260509234546 | 67 | 310 | 0.0 | 0.0 | 0.05 | 2.46 | 2.46 | 99 | 1014.2 |
| 20260509234044 | 67 | 265 | 0.0 | 0.0 | 0.00 | 2.45 | 2.45 | 99 | 1014.0 |
| 20260509233541 | 67 | 265 | 0.0 | 0.0 | 0.00 | 2.45 | 2.45 | 99 | 1013.1 |
| 20260509233038 | 67 | 265 | 0.0 | 0.0 | 0.07 | 2.45 | 2.45 | 99 | 1013.3 |
| 20260509232535 | 67 | 281 | 0.9 | 0.9 | 0.07 | 2.45 | 2.45 | 99 | 1013.5 |
| 20260509232032 | 67 | 306 | 0.9 | 0.9 | 0.05 | 2.44 | 2.44 | 99 | 1013.5 |
| 20260509231528 | 67 | 267 | 0.0 | 0.0 | 0.05 | 2.44 | 2.44 | 99 | 1013.8 |
| 20260509231026 | 67 | 267 | 0.0 | 0.9 | 0.00 | 2.43 | 2.43 | 99 | 1014.1 |
| 20260509230522 | 67 | 274 | 0.0 | 0.0 | 0.00 | 2.43 | 2.43 | 99 | 1013.7 |
| 20260509230020 | 67 | 233 | 0.9 | 0.9 | 0.00 | 2.43 | 2.43 | 99 | 1014.3 |
| 20260509225515 | 67 | 268 | 0.9 | 0.9 | 0.00 | 2.43 | 2.43 | 99 | 1014.6 |
| 20260509225011 | 67 | 194 | 0.0 | 0.9 | 0.00 | 2.43 | 2.43 | 99 | 1014.2 |
| 20260509224507 | 67 | 251 | 0.9 | 1.7 | 0.00 | 2.43 | 2.43 | 99 | 1014.3 |
| 20260509224004 | 67 | 286 | 0.9 | 0.9 | 0.00 | 2.43 | 2.43 | 99 | 1014.1 |
| 20260509223500 | 67 | 277 | 0.0 | 0.0 | 0.00 | 2.43 | 2.43 | 99 | 1014.1 |
| 20260509222958 | 67 | 313 | 1.7 | 1.7 | 0.00 | 2.43 | 2.43 | 99 | 1013.1 |
| 20260509222453 | 67 | 254 | 2.6 | 2.6 | 0.00 | 2.43 | 2.43 | 99 | 1012.9 |
| 20260509221949 | 67 | 266 | 0.0 | 0.9 | 0.00 | 2.43 | 2.43 | 99 | 1013.2 |
| 20260509221446 | 67 | 292 | 0.0 | 0.9 | 0.00 | 2.43 | 2.43 | 99 | 1013.5 |
| 20260509220941 | 67 | 257 | 0.0 | 0.0 | 0.00 | 2.43 | 2.43 | 99 | 1013.3 |
| 20260509220438 | 67 | 257 | 0.0 | 0.0 | 0.00 | 2.43 | 2.43 | 99 | 1013.1 |
| 20260509215934 | 67 | 257 | 0.0 | 0.0 | 0.00 | 2.43 | 2.43 | 99 | 1013.4 |
| 20260509215429 | 67 | 257 | 0.9 | 0.9 | 0.00 | 2.43 | 2.43 | 99 | 1013.2 |
| 20260509214927 | 67 | 247 | 0.0 | 0.0 | 0.00 | 2.43 | 2.43 | 99 | 1013.1 |
| 20260509214424 | 67 | 246 | 0.0 | 0.0 | 0.00 | 2.43 | 2.43 | 99 | 1012.5 |
| 20260509213921 | 67 | 305 | 0.0 | 0.0 | 0.00 | 2.43 | 2.43 | 99 | 1012.8 |
| 20260509213416 | 67 | 305 | 0.0 | 0.0 | 0.00 | 2.43 | 2.43 | 99 | 1013.1 |
| 20260509212914 | 67 | 321 | 0.0 | 0.0 | 0.00 | 2.43 | 2.43 | 99 | 1012.8 |
| 20260509212412 | 67 | 309 | 0.9 | 1.7 | 0.00 | 2.43 | 2.43 | 99 | 1013.2 |
| 20260509211908 | 67 | 247 | 0.0 | 0.0 | 0.07 | 2.43 | 2.43 | 99 | 1012.7 |
| 20260509211403 | 67 | 247 | 0.0 | 0.0 | 0.07 | 2.43 | 2.43 | 99 | 1012.1 |
| 20260509210900 | 67 | 247 | 0.0 | 0.0 | 0.00 | 2.42 | 2.42 | 99 | 1012.1 |
| 20260509210357 | 66 | 247 | 0.0 | 0.0 | 0.00 | 2.42 | 2.42 | 99 | 1012.5 |
| 20260509205852 | 66 | 243 | 0.0 | 0.0 | 0.00 | 2.42 | 2.42 | 99 | 1012.8 |
| 20260509205346 | 66 | 243 | 0.0 | 0.9 | 0.00 | 2.42 | 2.42 | 99 | 1012.9 |
| 20260509204844 | 66 | 255 | 0.0 | 0.0 | 0.00 | 2.42 | 2.42 | 99 | 1013.3 |
| 20260509204340 | 66 | 317 | 0.9 | 1.7 | 0.00 | 2.42 | 2.42 | 99 | 1014.1 |
| 20260509203836 | 67 | 310 | 0.9 | 0.9 | 0.00 | 2.42 | 2.42 | 99 | 1013.9 |
| 20260509203333 | 66 | 255 | 0.0 | 0.0 | 0.00 | 2.42 | 2.42 | 99 | 1013.2 |
| 20260509202829 | 66 | 290 | 0.0 | 0.0 | 0.00 | 2.42 | 2.42 | 99 | 1013.4 |
| 20260509202326 | 66 | 286 | 0.9 | 0.9 | 0.00 | 2.42 | 2.42 | 99 | 1013.6 |
| 20260509201825 | 66 | 310 | 0.9 | 0.9 | 0.00 | 2.42 | 2.42 | 99 | 1013.5 |
| 20260509201322 | 66 | 327 | 0.9 | 0.9 | 0.00 | 2.42 | 2.42 | 99 | 1013.5 |
| 20260509200818 | 66 | 324 | 0.0 | 0.0 | 0.00 | 2.42 | 2.42 | 99 | 1013.7 |
| 20260509200314 | 66 | 276 | 0.9 | 0.9 | 0.00 | 2.42 | 2.42 | 99 | 1013.6 |
| 20260509195811 | 66 | 307 | 0.0 | 0.0 | 0.00 | 2.42 | 2.42 | 99 | 1013.9 |
| 20260509195306 | 66 | 280 | 0.0 | 0.9 | 0.00 | 2.42 | 2.42 | 99 | 1013.7 |
| 20260509194805 | 66 | 290 | 0.9 | 1.7 | 0.00 | 2.42 | 2.42 | 99 | 1013.9 |
| 20260509194301 | 66 | 269 | 0.0 | 0.0 | 0.00 | 2.42 | 2.42 | 99 | 1013.8 |
| 20260509193758 | 65 | 323 | 0.0 | 0.9 | 0.00 | 2.42 | 2.42 | 99 | 1013.5 |
| 20260509193258 | 66 | 306 | 1.7 | 1.7 | 0.00 | 2.42 | 2.42 | 99 | 1013.4 |
| 20260509192755 | 66 | 308 | 0.9 | 0.9 | 0.00 | 2.42 | 2.42 | 99 | 1013.3 |
| 20260509192250 | 66 | 301 | 0.0 | 0.0 | 0.00 | 2.42 | 2.42 | 99 | 1013.3 |
| 20260509191745 | 66 | 305 | 0.0 | 0.0 | 0.00 | 2.42 | 2.42 | 99 | 1013.2 |
| 20260509191242 | 66 | 286 | 0.0 | 0.0 | 0.00 | 2.42 | 2.42 | 99 | 1013.2 |
| 20260509190738 | 65 | 283 | 0.0 | 0.0 | 0.00 | 2.42 | 2.42 | 99 | 1013.5 |
| 20260509190235 | 65 | 270 | 0.0 | 0.0 | 0.00 | 2.42 | 2.42 | 99 | 1013.3 |
| 20260509185733 | 65 | 273 | 0.9 | 0.9 | 0.00 | 2.42 | 2.42 | 99 | 1013.5 |
| 20260509185229 | 65 | 306 | 0.0 | 0.9 | 0.00 | 2.42 | 2.42 | 99 | 1013.1 |
| 20260509184727 | 65 | 158 | 2.6 | 2.6 | 0.00 | 2.42 | 2.42 | 99 | 1013.1 |
| 20260509184224 | 65 | 220 | 3.5 | 4.3 | 0.00 | 2.42 | 2.42 | 99 | 1013.6 |
| 20260509183720 | 65 | 173 | 1.7 | 2.6 | 0.00 | 2.42 | 2.42 | 99 | 1013.8 |
| 20260509183215 | 65 | 165 | 2.6 | 4.3 | 0.00 | 2.42 | 2.42 | 99 | 1013.7 |
| 20260509182711 | 65 | 156 | 3.5 | 4.3 | 0.00 | 2.42 | 2.42 | 99 | 1013.8 |
| 20260509182209 | 65 | 222 | 1.7 | 2.6 | 0.00 | 2.42 | 2.42 | 99 | 1013.9 |
| 20260509181706 | 65 | 233 | 1.7 | 1.7 | 0.00 | 2.42 | 2.42 | 99 | 1014.0 |
| 20260509181204 | 65 | 197 | 1.7 | 1.7 | 0.00 | 2.42 | 2.42 | 99 | 1014.0 |
| 20260509180700 | 65 | 164 | 1.7 | 2.6 | 0.00 | 2.42 | 2.42 | 99 | 1013.9 |